Weather observations for the past three days for
Marion - Williamson County Regional Airport
Imperial (Metric)
Date Time (cdt) Wind (mph) Vis. (mi.) Weather Sky Cond. Temperature (ºF) Relative Humidity Wind Chill (°F) Heat Index (°F) Pressure Precipitation (in)
Air Dwpt 6 hour altimeter (in) sea level (mb) 1 hr 3 hr 6 hr
Max. Min.
06 14:45 N 12 10.00 Partly Cloudy SCT043 60.8 42.8 52% 29.99 0.0
06 13:47 NE 6 10.00 Mostly Cloudy BKN075 59 42.8 55% 29.99 0.0
06 12:47 N 9 10.00 Overcast OVC075 59 42.8 55% 30 0.0
06 11:47 NE 6 10.00 Overcast OVC055 55.4 42.8 63% 30.01 0.0
06 10:47 NW 6 10.00 Overcast OVC055 53.6 44.6 72% 30 0.0
06 09:47 NW 9 10.00 Overcast OVC055 51.8 46.4 82% 30 0.0
06 08:47 N 9 10.00 Overcast BKN055 OVC085 50 46.4 88% 47 29.97 0.0
06 07:47 N 6 10.00 Overcast SCT055 BKN070 OVC080 48.2 46.4 94% 46 29.95 0.0
06 06:47 N 6 10.00 Overcast BKN055 OVC080 46.4 46.4 100% 44 29.94 0.0
06 06:35 N 3 10.00 Mostly Cloudy BKN055 BKN070 0 0 0% 29.94 0.0
06 06:15 Calm 7.00 Partly Cloudy SCT075 SCT095 0 0 0% 29.93 0.0
06 05:55 N 3 10.00 Overcast BKN075 OVC085 0 0 0% 29.92 0.0
06 05:35 Calm 10.00 Overcast SCT050 OVC075 0 0 0% 29.94 0.0
06 05:15 Calm 10.00 Overcast SCT050 OVC085 0 0 0% 29.93 0.0
06 04:55 N 3 10.00 Overcast SCT050 OVC085 0 0 0% 29.92 0.0
06 04:35 N 3 10.00 Overcast BKN050 OVC085 0 0 0% 29.89 0.0
06 04:15 Calm 10.00 Overcast OVC050 0 0 0% 29.9 0.0
06 03:55 Calm 10.00 Overcast SCT041 BKN048 OVC095 0 0 0% 29.9 0.0 0.04
06 03:35 N 3 10.00 Overcast BKN040 OVC110 0 0 0% 29.9 0.0
06 03:15 N 3 10.00 Light Drizzle BKN040 BKN070 OVC090 0 0 0% 29.9 0.0
06 02:55 N 3 10.00 Light Drizzle SCT040 BKN085 OVC110 0 0 0% 29.9 0.0
06 02:35 NE 3 10.00 Overcast SCT035 BKN075 OVC110 0 0 0% 29.89 0.0
06 02:15 N 6 10.00 Overcast SCT065 SCT080 OVC090 0 0 0% 29.88 0.0
06 01:55 N 7 10.00 Light Drizzle SCT065 BKN075 OVC110 0 0 0% 29.88 0.0 0.04
06 01:35 N 10 10.00 Light Rain SCT060 SCT075 OVC110 0 0 0% 29.86 0.0 0.03
06 01:15 N 9 G 18 10.00 Rain SCT012 SCT045 OVC060 0 0 0% 29.86 0.0 0.02
06 00:55 N 13 G 18 10.00 Light Rain SCT010 BKN014 OVC060 0 0 0% 29.89 0.0 0.08 0.37
06 00:35 N 14 G 20 7.00 Rain BKN010 OVC014 0 0 0% 29.88 0.0 0.08
06 00:15 N 13 G 18 7.00 Rain OVC010 0 0 0% 29.88 0.0 0.05
05 23:55 N 10 G 17 10.00 Rain OVC008 0 0 0% 29.88 0.0 0.05
05 23:35 N 10 G 16 10.00 Light Rain OVC006 0 0 0% 29.86 0.0 0.01
05 23:15 N 8 10.00 Rain BKN006 OVC010 0 0 0% 29.85 0.0 0.01
05 22:55 N 8 10.00 Drizzle BKN008 OVC014 0 0 0% 29.86 0.0 0.07
05 22:35 N 7 7.00 Light Rain BKN008 OVC016 0 0 0% 29.87 0.0 0.07
05 22:15 N 6 5.00 Heavy Rain BKN008 BKN013 OVC024 0 0 0% 29.87 0.0 0.04
05 21:55 N 8 10.00 Rain BKN008 BKN018 OVC039 0 0 0% 29.84 0.0 0.04 0.16
05 21:35 N 12 7.00 Rain OVC006 0 0 0% 29.84 0.0 0.03
05 21:15 N 12 G 16 7.00 Rain OVC006 0 0 0% 29.84 0.0 0.02
05 20:55 N 7 4.00 Rain OVC004 0 0 0% 29.81 0.0 0.12
05 20:35 N 7 7.00 Light Rain BKN004 BKN008 OVC012 0 0 0% 29.81 0.0 0.09
05 20:15 N 9 4.00 Heavy Rain SCT005 OVC011 0 0 0% 29.8 0.0 0.03
05 19:55 N 6 10.00 Overcast OVC009 0 0 0% 29.79 0.0
05 19:35 N 7 10.00 Light Drizzle OVC009 0 0 0% 29.78 0.0
05 19:15 N 8 10.00 Overcast OVC011 0 0 0% 29.78 0.0
05 18:45 N 12 7.00 Drizzle OVC005 51.8 50 94% 29.78 0.0
05 17:45 N 6 4.00 Drizzle OVC004 51.8 51.8 100% 29.8 0.0
05 16:45 N 14 2.00 Drizzle OVC004 51.8 51.8 100% 29.8 0.0
05 15:45 NW 14 2.00 Drizzle OVC004 53.6 53.6 100% 29.78 0.0
05 14:45 N 12 7.00 Light Rain OVC003 55.4 55.4 100% 29.77 0.0
05 13:46 N 12 2.00 Light Rain OVC003 55.4 55.4 100% 29.77 0.0
05 12:46 SW 6 10.00 Overcast OVC007 62.6 60.8 94% 29.79 0.0
05 11:46 S 6 10.00 Overcast OVC007 62.6 60.8 94% 29.79 0.0
05 10:46 S 6 10.00 Overcast OVC007 60.8 60.8 100% 29.78 0.0
05 09:46 S 6 7.00 Overcast SCT009 BKN013 OVC018 60.8 60.8 100% 29.79 0.0
05 08:46 SW 9 4.00 Rain SCT013 BKN018 OVC036 59 57.2 94% 29.78 0.0
05 07:47 SW 12 G 21 10.00 Overcast OVC055 64.4 53.6 68% 29.75 0.0
05 06:47 S 9 10.00 Overcast OVC055 64.4 51.8 64% 29.74 0.0
05 06:35 S 9 10.00 Overcast OVC055 0 0 0% 29.75 0.0
05 06:15 SW 10 G 16 10.00 Overcast SCT055 OVC095 64 51.8 65% 29.75 0.0
05 05:55 SW 8 10.00 Overcast OVC095 0 0 0% 29.74 0.0
05 05:35 SW 12 10.00 Overcast OVC095 0 0 0% 29.73 0.0
05 05:15 S 10 10.00 Overcast OVC095 0 0 0% 29.73 0.0
05 04:55 S 10 10.00 Overcast OVC095 64.4 51.6 63% 29.74 0.0
05 04:35 S 10 10.00 Overcast OVC095 0 0 0% 29.74 0.0
05 04:15 SW 12 10.00 Mostly Cloudy BKN095 0 0 0% 29.75 0.0
05 03:55 SW 13 G 17 10.00 Partly Cloudy SCT095 0 0 0% 29.75 0.0
05 03:35 SW 13 10.00 Fair CLR 64.9 51.4 62% 29.75 0.0
05 03:15 SW 10 10.00 Fair CLR 0 0 0% 29.75 0.0
05 02:55 SW 8 10.00 Fair CLR 0 0 0% 29.76 0.0
05 02:35 SW 9 10.00 Fair CLR 65.3 50.9 60% 29.74 0.0
05 02:15 SW 12 G 17 10.00 Fair CLR 0 0 0% 29.74 0.0
05 01:55 SW 9 10.00 Fair CLR 66.2 50.9 58% 29.76 0.0
05 01:35 S 12 10.00 Fair CLR 65.3 50.9 60% 29.75 0.0
05 01:15 S 10 G 18 10.00 Fair CLR 66.9 50.9 57% 29.75 0.0
05 00:55 SW 13 G 18 10.00 Fair CLR 0 0 0% 29.74 0.0
05 00:35 S 14 G 22 10.00 Fair CLR 68.2 50.9 54% 29.73 0.0
05 00:15 S 14 G 22 10.00 Partly Cloudy SCT120 68.7 50.9 53% 29.74 0.0
04 23:55 SW 13 G 21 10.00 Mostly Cloudy BKN120 0 0 0% 29.74 0.0
04 23:35 SW 13 10.00 Mostly Cloudy BKN120 0 0 0% 29.74 0.0
04 23:15 S 14 G 21 10.00 Partly Cloudy SCT120 0 0 0% 29.74 0.0
04 22:55 S 14 G 20 10.00 Fair CLR 0 0 0% 29.74 0.0
04 22:35 SW 13 G 21 10.00 Partly Cloudy SCT120 70 51.1 51% 29.74 0.0
04 22:15 S 12 G 18 10.00 Fair CLR 69.3 51.1 53% 29.74 0.0
04 21:55 S 13 10.00 Fair CLR 0 0 0% 29.74 0.0
04 21:35 SW 14 10.00 Fair CLR 0 0 0% 29.73 0.0
04 21:15 S 13 G 18 10.00 Fair CLR 0 0 0% 29.73 0.0
04 20:55 S 15 10.00 Fair CLR 0 0 0% 29.72 0.0
04 20:35 S 13 10.00 Fair CLR 70 50.9 51% 29.72 0.0
04 20:15 S 12 10.00 Fair CLR 71.4 50.4 48% 29.72 0.0
04 19:55 S 12 10.00 Fair CLR 0 0 0% 29.71 0.0
04 19:35 S 15 G 18 10.00 Fair CLR 73 50.2 45% 29.7 0.0
04 19:15 S 14 G 21 10.00 Fair CLR 0 0 0% 29.7 0.0
04 18:45 S 12 G 21 10.00 Partly Cloudy SCT150 75.2 48.2 39% 77 29.7 0.0
04 17:45 S 12 G 21 10.00 Partly Cloudy SCT150 75.2 48.2 39% 77 29.7 0.0
04 16:45 SW 20 G 26 10.00 Mostly Cloudy BKN150 78.8 46.4 32% 79 29.73 0.0
04 15:45 SW 21 G 31 10.00 Mostly Cloudy and Breezy BKN150 80.6 46.4 30% 80 29.76 0.0
04 14:45 SW 23 G 33 10.00 Mostly Cloudy and Breezy BKN150 80.6 46.4 30% 80 29.75 0.0
04 13:45 SW 22 G 30 10.00 Mostly Cloudy and Breezy BKN150 80.6 48.2 32% 80 29.75 0.0
04 12:45 SW 18 G 29 10.00 Mostly Cloudy BKN150 78.8 51.8 39% 79 29.76 0.0
04 11:45 SW 18 G 29 10.00 Mostly Cloudy BKN150 78.8 51.8 39% 79 29.81 0.0
04 10:45 SW 16 G 26 10.00 A Few Clouds FEW150 75.2 51.8 44% 78 29.81 0.0
04 09:45 S 9 10.00 A Few Clouds FEW150 69.8 53.6 57% 29.83 0.0
04 08:45 S 8 10.00 Partly Cloudy SCT150 66.2 53.6 64% 29.85 0.0
04 07:45 S 7 10.00 Mostly Cloudy BKN150 55.4 51.8 88% 29.85 0.0
04 06:45 Calm 10.00 Mostly Cloudy SCT120 BKN150 55.4 51.8 88% 29.85 0.0
04 06:35 Calm 10.00 Fair CLR 55 50.9 86% 29.85 0.0
04 06:15 Calm 10.00 Partly Cloudy SCT120 54 50.7 89% 29.85 0.0
04 05:55 Calm 10.00 Partly Cloudy SCT120 56.1 50.5 82% 29.85 0.0
04 05:35 Calm 10.00 Fair CLR 58.5 50 74% 29.84 0.0
04 05:15 Calm 10.00 Fair CLR 57.2 50.2 78% 29.85 0.0
04 04:55 Calm 10.00 Fair CLR 57.2 49.8 77% 29.85 0.0
04 04:35 Calm 10.00 Fair CLR 59.4 49.5 70% 29.85 0.0
04 04:15 Calm 10.00 Fair CLR 0 0 0% 29.85 0.0
04 03:55 SW 9 10.00 Fair CLR 0 0 0% 29.84 0.0
04 03:35 SW 10 10.00 Fair CLR 0 0 0% 29.83 0.0
04 03:15 SW 10 10.00 Fair CLR 0 0 0% 29.83 0.0
04 02:55 SW 10 10.00 Fair CLR 0 0 0% 29.83 0.0
04 02:35 SW 10 10.00 Fair CLR 0 0 0% 29.83 0.0
04 02:15 SW 10 10.00 Fair CLR 59.9 48.4 66% 29.83 0.0
04 01:55 S 10 10.00 Fair CLR 60.4 48.2 64% 29.84 0.0
04 01:15 SW 12 G 18 10.00 Fair CLR 0 0 0% 29.85 0.0
04 00:55 SW 12 G 17 10.00 Fair CLR 0 0 0% 29.85 0.0
04 00:35 SW 13 G 18 10.00 Fair CLR 0 0 0% 29.85 0.0
04 00:15 SW 13 G 20 10.00 Fair CLR 0 0 0% 29.85 0.0
03 23:55 SW 14 G 22 10.00 Fair CLR 0 0 0% 29.86 0.0
03 23:35 SW 13 G 18 10.00 Fair CLR 0 0 0% 29.87 0.0
03 23:15 SW 12 10.00 Fair CLR 0 0 0% 29.87 0.0
03 22:55 S 14 G 18 10.00 Fair CLR 0 0 0% 29.88 0.0
03 22:35 S 13 G 18 10.00 Fair CLR 0 0 0% 29.88 0.0
03 22:15 S 12 10.00 Fair CLR 0 0 0% 29.89 0.0
03 21:55 S 10 10.00 Fair CLR 0 0 0% 29.89 0.0
03 21:35 S 9 10.00 Fair CLR 0 0 0% 29.89 0.0
03 21:15 S 8 10.00 Fair CLR 59.9 43.2 54% 29.89 0.0
03 20:55 S 8 10.00 Fair CLR 60.3 42.6 52% 29.89 0.0
03 20:35 S 8 10.00 Fair CLR 61.5 41.9 49% 29.89 0.0
03 20:15 SW 8 10.00 Fair CLR 63.5 41 44% 29.89 0.0
03 19:55 SW 10 10.00 Fair CLR 64.9 40.3 41% 29.89 0.0
03 19:35 SW 13 G 18 10.00 Fair CLR 65.7 40.6 40% 29.89 0.0
03 19:15 SW 13 G 21 10.00 Fair CLR 66.6 40.8 39% 29.89 0.0
03 18:45 SW 18 G 25 10.00 Fair CLR 69.8 39.2 33% 29.88 0.0
03 17:45 SW 17 G 28 10.00 Fair CLR 69.8 39.2 33% 29.89 0.0
03 16:45 SW 23 G 30 10.00 Fair and Breezy CLR 69.8 39.2 33% 29.92 0.0
03 15:45 SW 23 G 30 10.00 Fair and Breezy CLR 69.8 39.2 33% 29.96 0.0
Date Time (cdt) Wind (mph) Vis. (mi.) Weather Sky Cond. Air Dwpt Max. Min. Relative Humidity Wind Chill (°F) Heat Index (°F) altimeter (in) sea level (mb) 1 hr 3 hr 6 hr
6 hour
Temperature (ºF) Pressure Precipitation (in)